Wind_Speed
7 6 6 6 6 4 5 6 5 5 6 6 6 7 7 8 9 10 11 12 12 12 12 12 12 12 12 11 11 10 10 10 10 10 9 8 7 7 6 6 6 5 5 4
7 6 6 6 5 2 3 3 2 2 4 4 4 5 5 6 6 7 9 10 11 12 12 12 12 12 12 11 11 11 10 10 10 10 9 9 8 8 7 7 6 6 5 4
6 7 6 5 4 3 2 1 2 2 3 3 4 5 4 5 5 6 7 8 10 11 11 12 12 11 12 11 10 10 10 10 10 9 9 9 8 7 7 7 6 6 5 5
7 7 6 5 3 4 4 2 3 3 4 4 3 5 5 6 5 6 7 7 7 9 10 10 11 11 11 11 10 10 9 9 9 9 8 8 8 7 7 6 6 6 6 5
8 8 6 5 4 5 5 3 3 3 4 3 2 4 5 7 7 6 6 7 6 7 8 9 10 10 11 11 10 10 9 9 9 10 9 8 8 8 7 6 6 6 6 6
9 9 7 6 5 5 5 5 4 4 4 3 3 5 6 7 7 6 7 7 7 6 7 8 9 10 10 11 11 10 10 10 10 10 9 9 9 8 7 7 6 6 6 7
9 9 7 7 6 6 7 6 5 4 4 5 4 5 5 6 6 7 7 7 7 8 8 8 9 10 10 11 11 10 11 11 11 10 10 9 8 8 8 7 7 7 8 7
12 10 8 7 7 6 7 7 6 5 5 5 6 5 4 5 6 6 7 8 8 9 9 9 9 9 10 11 11 11 11 11 11 11 10 9 9 8 8 8 8 8 9 8
14 12 11 10 8 8 9 8 7 7 7 7 7 6 6 4 5 6 7 9 10 9 10 11 10 10 10 11 11 11 11 11 11 11 10 10 9 9 8 9 9 9 8 8
14 14 14 12 11 11 10 9 9 9 8 9 8 7 7 7 7 7 8 8 9 10 11 12 11 11 11 11 11 11 11 11 11 11 11 10 10 10 10 9 9 9 9 9
15 15 15 15 14 14 14 14 13 12 12 11 11 9 8 9 9 9 9 9 9 11 12 12 12 12 12 12 13 13 14 13 13 13 12 11 11 10 11 10 10 10 10 10
18 18 17 16 16 16 16 16 15 14 13 14 14 11 10 11 11 12 11 11 11 11 12 12 13 13 13 14 14 15 15 15 15 14 13 12 12 12 11 11 11 11 11 11
20 20 18 17 17 18 18 17 17 15 15 15 15 15 13 13 14 14 15 15 15 13 12 13 14 15 14 15 15 16 16 16 16 15 15 14 14 14 13 13 13 12 12 11
21 20 20 18 17 18 19 19 19 18 17 16 16 17 17 17 17 17 17 18 18 16 15 15 16 16 16 17 17 18 18 18 17 17 16 16 16 16 15 15 14 13 13 12
22 21 21 20 20 20 20 21 21 21 20 20 19 20 21 21 20 20 20 20 20 17 17 18 18 18 18 19 18 19 20 20 20 19 18 18 18 17 17 16 15 15 14 14
24 24 23 22 22 22 22 22 23 23 22 22 21 22 22 23 22 22 22 22 21 20 20 21 20 20 21 21 21 21 22 21 22 21 20 19 20 19 19 18 18 17 17 16
25 25 25 25 24 25 24 22 22 22 23 24 23 23 23 23 23 24 24 24 25 23 23 23 23 22 23 23 23 23 23 23 23 23 22 22 22 21 21 21 21 20 19 18
27 27 27 26 26 27 24 24 24 25 25 25 25 24 24 24 25 25 25 25 24 24 24 25 25 25 25 25 25 24 24 25 25 24 24 24 24 23 23 23 22 22 21 21
28 28 28 28 28 27 26 26 26 27 28 28 27 26 25 25 26 27 27 26 26 27 27 27 27 27 27 27 26 26 26 26 26 26 26 26 26 25 24 25 24 23 23 22
27 28 28 29 29 29 27 27 27 28 29 29 29 29 28 27 28 28 28 28 28 29 29 28 27 28 29 29 28 27 27 28 27 27 27 27 27 26 26 26 26 25 25 24
28 28 29 29 29 29 27 27 28 30 30 29 29 30 30 29 30 29 30 30 31 31 31 30 29 29 29 29 29 29 28 28 29 28 29 29 28 28 27 27 26 25 25 26
28 29 29 30 30 30 27 27 28 30 30 30 31 31 31 30 30 31 31 32 32 32 32 31 30 30 30 30 30 31 30 30 31 31 30 30 30 29 28 28 27 27 27 27
30 31 31 31 31 30 29 29 30 30 30 31 31 31 31 31 32 32 32 32 32 32 32 31 31 31 32 32 32 32 32 31 32 31 30 30 30 30 29 28 28 28 28 28
31 31 32 31 31 30 31 30 30 30 31 32 32 33 32 32 33 33 33 32 32 32 32 32 31 32 33 34 34 34 33 33 32 31 30 30 30 30 30 29 29 28 28 28
30 31 31 31 31 31 31 31 31 31 31 32 33 33 34 33 32 32 32 33 33 32 33 33 32 32 33 33 34 34 34 34 33 32 32 32 31 31 31 30 30 29 28 28
30 31 32 32 32 32 32 32 32 33 33 33 33 34 34 33 32 33 34 34 34 34 34 34 33 33 34 34 34 34 34 34 34 34 34 33 32 31 31 30 29 30 30 29
Wind_Direction
154 137 135 133 123 105 72 72 57 28 22 29 32 33 36 40 42 39 45 41 37 35 31 31 31 31 32 36 39 41 42 43 40 39 35 31 29 25 21 22 26 23 14 16
162 139 145 156 151 130 73 51 33 7 0 4 10 16 19 23 26 39 41 40 34 32 30 29 29 29 29 33 37 37 39 39 36 34 31 27 23 21 16 12 15 14 9 8
166 155 160 167 177 196 222 311 333 346 329 321 330 351 10 7 10 36 36 35 31 32 33 29 28 27 27 30 33 33 34 33 29 27 24 22 18 18 16 12 10 7 6 2
177 170 175 180 205 240 245 257 288 299 312 320 327 346 359 357 5 26 26 21 26 28 28 28 26 24 23 24 30 28 24 20 17 15 17 18 12 10 12 13 12 7 1 354
186 186 193 195 213 243 241 256 266 290 305 314 351 354 4 1 357 9 9 9 11 18 27 24 21 19 18 16 18 19 20 16 9 10 7 9 8 4 5 3 0 354 346 340
194 203 211 213 217 238 241 245 242 265 283 301 351 353 9 356 359 360 356 357 6 9 14 15 15 14 14 11 11 11 12 10 8 7 5 1 1 359 358 354 349 342 333 326
202 211 211 208 217 225 233 232 230 247 290 316 327 332 355 358 355 358 360 357 360 358 4 7 8 6 5 6 6 4 5 4 3 3 2 359 354 356 354 349 343 337 332 326
215 215 221 221 220 221 234 237 245 273 293 315 308 302 328 344 355 0 1 359 357 360 1 356 354 355 355 354 357 357 357 358 357 356 355 356 351 351 349 343 338 333 332 327
221 219 224 231 232 230 224 232 251 265 275 289 304 299 294 317 333 338 347 356 351 345 343 343 347 350 348 348 348 349 347 346 345 348 348 345 343 343 343 339 336 333 332 327
226 226 225 229 236 236 232 236 244 253 267 282 290 299 301 287 304 317 326 339 335 329 332 334 335 341 338 337 341 341 340 338 336 336 335 336 335 336 339 335 330 327 323 322
234 235 227 226 233 239 238 239 244 251 258 268 275 287 290 285 286 296 304 312 315 317 319 321 329 333 333 331 333 334 331 330 330 328 327 324 321 322 324 325 321 317 315 314
235 237 235 232 234 240 242 246 248 252 256 262 269 275 281 274 278 284 291 296 299 304 307 310 315 322 323 324 326 326 327 323 323 323 320 319 320 320 318 315 312 310 309 310
238 237 235 235 237 239 244 248 247 250 256 260 267 277 277 280 281 289 289 294 295 298 298 304 308 312 315 318 318 319 320 318 317 316 315 314 314 312 310 309 308 305 304 303
238 240 240 240 240 242 245 249 249 251 255 261 265 271 273 278 283 287 290 295 295 293 294 299 302 305 308 311 313 313 314 314 311 309 308 308 307 306 304 302 302 300 297 295
238 240 243 243 244 244 245 248 250 252 257 261 264 268 274 275 277 282 289 292 293 291 294 295 298 302 303 304 304 305 305 304 304 303 302 301 302 301 301 299 298 296 292 291
238 240 243 246 248 246 247 248 251 254 257 262 265 268 272 274 276 281 285 288 290 295 295 292 292 295 296 297 298 299 299 299 298 297 297 296 296 296 296 295 294 292 290 288
239 242 244 247 248 248 247 249 252 256 258 262 266 270 271 272 277 280 283 286 287 291 292 292 292 292 291 292 294 295 295 295 294 294 293 292 291 291 291 292 290 288 287 285
243 244 246 249 250 250 251 251 252 254 257 261 264 267 270 272 276 278 282 285 287 289 290 290 290 289 288 289 290 291 291 292 291 290 289 290 289 288 288 289 290 288 285 282
243 244 245 247 250 253 252 253 254 256 258 263 266 267 269 272 275 275 279 282 284 286 286 286 285 286 286 286 287 289 290 290 291 290 290 289 289 285 286 285 285 286 285 283
244 244 246 248 251 253 254 254 256 259 261 264 268 268 270 273 275 276 278 280 281 283 286 285 284 284 285 285 286 287 287 288 289 288 288 289 290 288 288 286 284 285 283 284
245 247 249 251 254 256 256 255 256 258 262 264 266 269 271 274 276 278 279 279 280 282 284 283 283 284 284 285 285 286 287 287 287 288 288 288 289 288 286 285 284 284 283 281
247 249 251 254 256 258 258 257 257 259 261 264 267 270 273 274 276 278 279 279 280 283 284 282 283 283 284 284 285 286 286 286 286 286 286 287 287 287 286 283 281 281 281 281
247 250 253 256 258 259 259 258 259 262 264 265 267 267 269 271 274 276 277 279 281 282 283 283 283 284 284 284 284 285 286 286 286 285 284 284 284 285 284 284 281 280 280 280
249 251 254 256 258 260 261 261 263 264 266 267 267 267 268 270 272 275 276 278 280 281 282 283 284 285 284 284 284 285 285 285 286 285 284 283 282 283 283 283 282 280 279 278
251 252 253 255 258 260 261 263 265 265 267 269 270 269 269 269 271 273 276 278 280 282 283 283 285 285 285 284 285 286 286 285 285 285 283 282 282 282 283 282 281 279 278 278
250 252 254 256 259 260 261 264 266 266 266 269 270 270 271 271 272 274 276 278 279 281 281 282 283 285 286 286 286 285 285 285 284 284 282 281 282 281 281 280 280 279 278 279
Height
5926 5927 5927 5928 5928 5929 5928 5928 5928 5928 5928 5928 5928 5926 5925 5924 5923 5923 5922 5921 5920 5918 5917 5915 5912 5910 5909 5907 5906 5904 5903 5901 5900 5898 5897 5896 5894 5893 5892 5890 5889 5888 5887 5886
5926 5927 5928 5928 5928 5928 5928 5928 5928 5928 5928 5928 5928 5927 5926 5924 5924 5923 5922 5922 5921 5919 5917 5916 5914 5912 5910 5908 5907 5905 5904 5902 5901 5899 5898 5896 5895 5893 5892 5890 5889 5888 5887 5886
5925 5927 5927 5927 5928 5928 5929 5929 5929 5929 5928 5927 5927 5927 5926 5925 5924 5923 5922 5922 5921 5920 5918 5916 5915 5913 5911 5909 5907 5906 5905 5903 5902 5900 5898 5896 5895 5893 5892 5890 5889 5888 5887 5885
5924 5925 5926 5926 5927 5927 5928 5929 5929 5928 5928 5927 5927 5926 5926 5925 5924 5923 5922 5922 5920 5919 5918 5917 5915 5914 5912 5910 5908 5907 5905 5904 5902 5900 5898 5897 5895 5893 5892 5890 5889 5888 5886 5885
5923 5924 5925 5925 5926 5927 5928 5928 5929 5928 5927 5927 5926 5926 5926 5925 5923 5923 5922 5921 5919 5919 5918 5917 5916 5914 5913 5910 5908 5907 5905 5904 5902 5900 5898 5896 5895 5893 5891 5890 5888 5887 5886 5884
5922 5923 5924 5924 5926 5927 5927 5927 5928 5927 5927 5927 5926 5926 5925 5924 5923 5923 5922 5920 5919 5919 5918 5916 5916 5914 5913 5911 5909 5907 5905 5904 5902 5900 5898 5896 5894 5892 5891 5889 5888 5886 5884 5883
5920 5921 5922 5923 5924 5925 5926 5926 5927 5926 5926 5926 5925 5925 5925 5924 5923 5922 5921 5920 5919 5918 5917 5916 5915 5914 5912 5910 5909 5907 5905 5904 5902 5899 5897 5895 5893 5892 5890 5888 5887 5885 5883 5881
5918 5920 5921 5921 5922 5923 5924 5925 5926 5926 5925 5925 5924 5923 5924 5923 5922 5921 5921 5920 5918 5917 5916 5916 5915 5913 5912 5910 5908 5907 5905 5903 5901 5899 5896 5894 5892 5891 5889 5887 5885 5883 5882 5880
5915 5918 5918 5919 5920 5921 5922 5923 5924 5923 5923 5923 5923 5922 5921 5921 5921 5920 5919 5918 5917 5916 5915 5915 5914 5912 5911 5910 5908 5906 5904 5902 5900 5898 5896 5894 5892 5890 5887 5886 5884 5882 5880 5879
5912 5915 5916 5917 5918 5919 5920 5920 5921 5921 5920 5920 5920 5920 5920 5919 5919 5918 5917 5917 5916 5915 5914 5913 5912 5911 5910 5908 5906 5904 5903 5901 5899 5896 5894 5892 5891 5888 5886 5884 5882 5880 5878 5877
5908 5911 5913 5914 5915 5916 5917 5917 5917 5918 5918 5918 5917 5920 5918 5917 5917 5916 5916 5915 5915 5913 5912 5911 5910 5908 5907 5905 5904 5903 5901 5899 5897 5895 5893 5891 5889 5886 5884 5882 5880 5878 5876 5875
5904 5906 5908 5910 5912 5912 5912 5913 5914 5915 5915 5915 5915 5918 5915 5914 5914 5914 5913 5913 5912 5911 5910 5908 5907 5906 5905 5903 5901 5900 5899 5897 5894 5892 5890 5888 5886 5883 5882 5880 5878 5876 5874 5872
5900 5902 5904 5906 5909 5909 5908 5909 5909 5910 5911 5911 5911 5914 5911 5911 5911 5910 5910 5909 5909 5908 5907 5906 5905 5904 5902 5900 5898 5897 5895 5894 5891 5889 5888 5886 5884 5881 5879 5877 5875 5873 5871 5869
5896 5897 5900 5902 5903 5903 5904 5904 5905 5906 5906 5906 5907 5908 5908 5907 5907 5907 5906 5905 5905 5904 5903 5902 5901 5900 5899 5897 5895 5893 5891 5889 5887 5886 5884 5882 5880 5878 5876 5873 5871 5869 5868 5866
5890 5892 5894 5896 5897 5898 5899 5899 5900 5901 5902 5902 5903 5903 5903 5903 5903 5902 5902 5901 5900 5899 5899 5898 5897 5896 5895 5893 5891 5889 5887 5885 5883 5881 5880 5878 5876 5874 5872 5870 5867 5866 5864 5863
5885 5886 5888 5890 5892 5893 5894 5894 5895 5896 5896 5897 5898 5898 5898 5897 5897 5897 5897 5897 5896 5895 5894 5893 5892 5891 5889 5888 5886 5885 5882 5880 5878 5876 5874 5873 5872 5870 5867 5865 5863 5862 5860 5858
5878 5881 5883 5885 5886 5887 5888 5890 5890 5890 5891 5892 5892 5894 5893 5892 5892 5891 5891 5891 5890 5890 5888 5887 5886 5885 5883 5882 5880 5879 5877 5875 5872 5870 5869 5867 5866 5864 5862 5860 5858 5856 5854 5853
5872 5874 5876 5878 5880 5881 5885 5883 5884 5884 5884 5885 5886 5887 5887 5887 5886 5885 5885 5885 5884 5883 5882 5881 5880 5878 5877 5875 5873 5872 5870 5869 5866 5864 5862 5861 5859 5857 5856 5854 5852 5850 5848 5847
5865 5868 5869 5871 5872 5874 5877 5877 5877 5877 5878 5878 5879 5880 5880 5881 5880 5879 5879 5878 5877 5876 5875 5874 5873 5871 5869 5868 5866 5865 5863 5861 5859 5858 5856 5854 5852 5850 5848 5847 5845 5843 5841 5840
5858 5860 5862 5863 5864 5866 5870 5870 5870 5871 5870 5871 5871 5872 5872 5873 5873 5873 5872 5870 5869 5869 5867 5866 5865 5863 5861 5860 5859 5857 5855 5853 5852 5850 5849 5847 5844 5842 5841 5839 5838 5836 5834 5833
5850 5852 5854 5855 5856 5858 5862 5862 5863 5864 5864 5863 5863 5864 5864 5865 5865 5865 5864 5863 5861 5860 5859 5857 5856 5854 5853 5852 5850 5849 5847 5845 5843 5842 5840 5838 5836 5835 5833 5832 5830 5828 5826 5825
5843 5844 5846 5847 5849 5853 5853 5854 5855 5855 5856 5855 5856 5856 5856 5856 5856 5856 5855 5854 5853 5851 5850 5848 5846 5845 5844 5842 5841 5839 5838 5836 5834 5833 5831 5829 5827 5826 5824 5823 5821 5820 5818 5817
5835 5837 5838 5840 5843 5843 5844 5845 5846 5846 5847 5847 5847 5847 5847 5847 5847 5847 5846 5845 5844 5843 5841 5839 5837 5836 5834 5833 5831 5830 5828 5826 5825 5823 5822 5820 5818 5817 5815 5814 5812 5811 5809 5808
5827 5829 5830 5831 5833 5835 5835 5836 5837 5838 5838 5838 5838 5838 5838 5838 5838 5838 5837 5836 5835 5833 5832 5829 5827 5826 5824 5822 5821 5819 5818 5816 5815 5813 5812 5810 5809 5808 5806 5804 5803 5802 5800 5799
5820 5821 5822 5823 5825 5826 5827 5827 5828 5829 5829 5829 5829 5828 5828 5828 5827 5827 5827 5826 5825 5823 5822 5819 5817 5815 5814 5812 5810 5808 5806 5805 5804 5803 5802 5800 5799 5798 5797 5795 5793 5792 5791 5789
5811 5813 5814 5815 5817 5818 5818 5819 5819 5819 5820 5820 5819 5819 5819 5818 5818 5817 5817 5816 5814 5813 5811 5809 5807 5805 5803 5801 5799 5797 5796 5794 5793 5792 5791 5790 5789 5788 5787 5786 5784 5783 5782 5781